Regional Weather Roundup
Issued by NWS Portland, ME

Current Version | Previous Version | Text Only | Print | Product List | Glossary Off
Versions: 1 2 3 4 5 6 7 8 9 10 11 12 13 14 15 16 17 18 19 20 21 22 23 24 25 26 27 28 29 30 31 32 33 34 35 36 37 38 39 40 41 42 43 44 45 46 47 48 49 50
595 ASUS41 KGYX 221505 RWRGYX WEATHER ROUNDUP FOR MAINE AND NEW HAMPSHIRE NATIONAL WEATHER SERVICE GRAY ME 1100 AM EDT MON OCT 22 2018 MEZ002-005-006-010-012-015-018-020-021-024-026-027-029-221600- MAINE CITY SKY/WX TMP DP RH WIND PRES REMARKS PORTLAND FAIR 42 21 43 NW14 30.13F SANFORD FAIR 41 19 41 NW14G21 30.13F BAR HARBOR FAIR 41 19 41 NW13 30.09S WISCASSET FAIR 41 19 41 NW8 30.13F ROCKLAND FAIR 39 18 42 W10 30.11S FRYEBURG FAIR 41 16 36 NW9 30.11F LEWISTONAUBURN FAIR 39 21 48 W8 30.12S AUGUSTA FAIR 39 18 42 W9 30.11S WATERVILLE CLOUDY 38 19 46 W12G17 30.08R BANGOR PTSUNNY 39 18 42 W9G18 30.07F GREENVILLE N/A 31 17 56 W10G21 29.98R MILLINOCKET FAIR 36 16 44 W14G23 30.03S HOULTON PTSUNNY 34 18 52 W12G18 29.97R PRESQUE ISLE CLOUDY 35 16 45 W16G23 29.95 FRENCHVILLE CLOUDY 33 15 47 W22G28 29.90R CARIBOU PTSUNNY N/A N/A N/A W13G23 29.92S $$ NHZ002-005-008-009-011-012-014-221600- NEW HAMPSHIRE CITY SKY/WX TMP DP RH WIND PRES REMARKS PORTSMOUTH MOSUNNY 43 17 35 W12G20 30.13F ROCHESTER FAIR 43 21 41 W10G18 30.13F NASHUA FAIR 41 23 48 CALM 30.17F MANCHESTER FAIR 43 20 39 NW7 30.15S CONCORD FAIR 42 20 41 NW13 30.16S LACONIA FAIR 40 19 43 VRB6G23 30.14S PLYMOUTH FAIR 40 19 42 NW12G20 30.13S BERLIN FAIR 36 18 48 VRB7G17 30.08S WHITEFIELD CLOUDY 36 20 52 W12G17 30.10S JAFFREY FAIR 41 24 51 W10G16 30.14S KEENE FAIR 43 27 53 SW9 30.16S LEBANON FAIR 41 21 44 CALM 30.14S MT WASHINGTON NOT AVBL $$ VTZ005-007-008-221600- VERMONT CITY SKY/WX TMP DP RH WIND PRES REMARKS ST JOHNSBURY N/A 37 18 46 MISG 30.11S MONTPELIER CLOUDY 35 20 54 W8 30.15R BURLINGTON PTSUNNY 40 21 46 VRB3 30.14S $$ MAZ007-012-024-CTZ003-RIZ002-NYZ038-NYZ072-221600- SOUTHERN NEW ENGLAND AND NY CITY SKY/WX TMP DP RH WIND PRES REMARKS BOSTON FAIR 46 24 42 W13 30.18F WORCESTER FAIR 41 27 57 W13 30.15S NANTUCKET FAIR 46 26 45 W12G21 30.22F PROVIDENCE FAIR 46 29 51 W12 30.22F HARTFORD PTSUNNY 44 30 57 SW7 30.21S ALBANY PTSUNNY 44 32 62 S5 30.19F NEW YORK CITY PTSUNNY 50 31 48 SW12 30.25F $$ ANZ081-ANZ082-ANZ150-NHZ014-MEZ023>029-221600- COASTAL MARINE OBSERVATIONS STATION/POSITION TIME TEMP WIND PRES WAVE AIR SEA DIR/SP/G HT/PER (UTC) (F) (DEG/KT/KT) (MB) (FT/S) MOUNT DESERT ROC 1400 39 260/ 16/ 18 1019.3S MATINICUS ROCK 1400 39 280/ 20/ 23 1019.1F ISLE OF SHOALS 1400 39 290/ 17/ 21 1020.8R JEFFREYS LEDGE 1406 54 N/A 4/ 4 $$ .............KEY.............. WCI - WIND CHILL TC - TEMPERATURE IN CELSIUS VSB - VISIBILITY IN MILES HX - HEAT INDEX FAIR- INDICATES FEW OR NO CLOUDS BELOW 12,000 FT, WITH NO SIGNIFICANT WEATHER AND/OR OBSTRUCTIONS TO VISIBILITY.

USA.gov is the U.S. government's official web portal to all federal, state and local government web resources and services.